TimeCDT,TemperatureF,Dew PointF,Humidity,Sea Level PressureIn,VisibilityMPH,Wind Direction,Wind SpeedMPH,Gust SpeedMPH,PrecipitationIn,Events,Conditions,WindDirDegrees,DateUTC
12:15 AM,48.2,35.6,62,30.26,10.0,ESE,3.5,-,N/A,,Clear,120,2013-05-12 05:15:00
12:35 AM,46.4,35.6,66,30.26,10.0,Calm,Calm,-,N/A,,Clear,0,2013-05-12 05:35:00
12:55 AM,46.4,35.6,66,30.26,10.0,SE,3.5,-,N/A,,Clear,140,2013-05-12 05:55:00
1:15 AM,46.4,35.6,66,30.24,10.0,SSE,5.8,-,N/A,,Clear,150,2013-05-12 06:15:00
1:35 AM,44.6,37.4,76,30.24,10.0,SSE,3.5,-,N/A,,Clear,160,2013-05-12 06:35:00
1:55 AM,42.8,35.6,76,30.24,10.0,Calm,Calm,-,N/A,,Clear,0,2013-05-12 06:55:00
2:15 AM,42.8,35.6,76,30.23,10.0,Calm,Calm,-,N/A,,Clear,0,2013-05-12 07:15:00
2:35 AM,44.6,33.8,66,30.23,10.0,SSW,4.6,-,N/A,,Clear,200,2013-05-12 07:35:00
2:55 AM,44.6,33.8,66,30.22,10.0,SSE,3.5,-,N/A,,Clear,150,2013-05-12 07:55:00
3:15 AM,42.8,35.6,76,30.21,10.0,SSE,4.6,-,N/A,,Clear,160,2013-05-12 08:15:00
3:35 AM,42.8,33.8,70,30.22,10.0,Calm,Calm,-,N/A,,Clear,0,2013-05-12 08:35:00
3:55 AM,42.8,33.8,70,30.21,10.0,SSW,4.6,-,N/A,,Clear,200,2013-05-12 08:55:00
4:35 AM,42.8,33.8,70,30.21,10.0,Calm,Calm,-,N/A,,Clear,0,2013-05-12 09:35:00
4:55 AM,42.8,35.6,76,30.21,10.0,Calm,Calm,-,N/A,,Clear,0,2013-05-12 09:55:00
5:15 AM,42.8,35.6,76,30.21,10.0,SE,3.5,-,N/A,,Clear,140,2013-05-12 10:15:00
5:35 AM,41.0,35.6,81,30.21,10.0,SE,3.5,-,N/A,,Clear,140,2013-05-12 10:35:00
5:55 AM,42.8,37.4,81,30.21,10.0,East,5.8,-,N/A,,Mostly Cloudy,100,2013-05-12 10:55:00
6:15 AM,42.8,37.4,81,30.21,10.0,East,5.8,-,N/A,,Mostly Cloudy,100,2013-05-12 11:15:00
6:35 AM,42.8,37.4,81,30.21,10.0,ESE,5.8,-,N/A,,Mostly Cloudy,120,2013-05-12 11:35:00
6:55 AM,42.8,37.4,81,30.21,10.0,ESE,4.6,-,N/A,,Mostly Cloudy,110,2013-05-12 11:55:00
7:15 AM,44.6,37.4,76,30.21,10.0,ESE,5.8,-,N/A,,Scattered Clouds,110,2013-05-12 12:15:00
7:35 AM,42.8,37.4,81,30.23,10.0,ENE,9.2,-,N/A,,Scattered Clouds,70,2013-05-12 12:35:00
7:55 AM,44.6,37.4,76,30.21,10.0,ESE,10.4,-,N/A,,Mostly Cloudy,110,2013-05-12 12:55:00
8:15 AM,44.6,39.2,81,30.22,10.0,East,9.2,-,N/A,,Mostly Cloudy,80,2013-05-12 13:15:00
8:35 AM,48.2,42.8,82,30.21,10.0,ESE,12.7,-,N/A,,Mostly Cloudy,120,2013-05-12 13:35:00
8:55 AM,51.8,41.0,67,30.20,10.0,SE,11.5,-,N/A,,Scattered Clouds,130,2013-05-12 13:55:00
9:15 AM,51.8,39.2,62,30.20,10.0,ESE,12.7,-,N/A,,Partly Cloudy,120,2013-05-12 14:15:00
9:35 AM,53.6,39.2,58,30.19,10.0,ESE,12.7,-,N/A,,Partly Cloudy,120,2013-05-12 14:35:00
9:55 AM,55.4,42.8,63,30.17,10.0,SE,15.0,-,N/A,,Scattered Clouds,140,2013-05-12 14:55:00
10:15 AM,57.2,42.8,59,30.17,10.0,SSE,15.0,-,N/A,,Scattered Clouds,160,2013-05-12 15:15:00
10:35 AM,59.0,42.8,55,30.17,10.0,SSE,15.0,-,N/A,,Scattered Clouds,160,2013-05-12 15:35:00
10:55 AM,60.8,42.8,52,30.17,10.0,SE,17.3,-,N/A,,Partly Cloudy,140,2013-05-12 15:55:00
11:15 AM,62.6,44.6,52,30.15,10.0,SSE,15.0,-,N/A,,Clear,150,2013-05-12 16:15:00
11:35 AM,64.4,44.6,49,30.15,10.0,SSE,17.3,25.3,N/A,,Clear,160,2013-05-12 16:35:00
11:55 AM,66.2,44.6,46,30.14,10.0,SSE,18.4,25.3,N/A,,Clear,160,2013-05-12 16:55:00
12:15 PM,66.2,46.4,49,30.13,10.0,SSE,17.3,20.7,N/A,,Clear,150,2013-05-12 17:15:00
12:35 PM,69.8,46.4,43,30.12,10.0,SE,17.3,-,N/A,,Clear,140,2013-05-12 17:35:00
12:55 PM,71.6,46.4,41,30.11,10.0,SSE,19.6,26.5,N/A,,Clear,160,2013-05-12 17:55:00
1:15 PM,71.6,46.4,41,30.10,10.0,SSE,16.1,24.2,N/A,,Partly Cloudy,160,2013-05-12 18:15:00
1:35 PM,71.6,46.4,41,30.09,10.0,South,13.8,21.9,N/A,,Partly Cloudy,180,2013-05-12 18:35:00
1:55 PM,73.4,48.2,41,30.09,10.0,South,13.8,-,N/A,,Clear,170,2013-05-12 18:55:00
2:15 PM,75.2,48.2,38,30.08,10.0,SSE,18.4,24.2,N/A,,Clear,160,2013-05-12 19:15:00
2:35 PM,75.2,48.2,38,30.07,10.0,South,11.5,24.2,N/A,,Partly Cloudy,180,2013-05-12 19:35:00
2:55 PM,75.2,48.2,38,30.07,10.0,South,15.0,20.7,N/A,,Partly Cloudy,170,2013-05-12 19:55:00
3:15 PM,75.2,48.2,38,30.06,10.0,South,16.1,24.2,N/A,,Clear,180,2013-05-12 20:15:00
3:35 PM,75.2,48.2,38,30.05,10.0,SSE,16.1,20.7,N/A,,Partly Cloudy,160,2013-05-12 20:35:00
3:55 PM,77.0,50.0,39,30.04,10.0,SSE,17.3,25.3,N/A,,Clear,150,2013-05-12 20:55:00
4:15 PM,78.8,50.0,36,30.03,10.0,SSE,13.8,-,N/A,,Clear,160,2013-05-12 21:15:00
4:35 PM,78.8,50.0,36,30.03,10.0,SSE,17.3,-,N/A,,Partly Cloudy,150,2013-05-12 21:35:00
4:55 PM,78.8,48.2,34,30.03,10.0,SSE,13.8,-,N/A,,Partly Cloudy,150,2013-05-12 21:55:00
5:15 PM,77.0,50.0,39,30.03,10.0,SE,15.0,-,N/A,,Partly Cloudy,130,2013-05-12 22:15:00
5:35 PM,75.2,48.2,38,30.03,10.0,SE,15.0,19.6,N/A,,Clear,130,2013-05-12 22:35:00
5:55 PM,75.2,51.8,44,30.03,10.0,SE,17.3,-,N/A,,Partly Cloudy,140,2013-05-12 22:55:00
6:15 PM,75.2,51.8,44,30.02,10.0,SE,15.0,-,N/A,,Partly Cloudy,130,2013-05-12 23:15:00
6:35 PM,75.2,50.0,41,30.02,10.0,SE,19.6,-,N/A,,Clear,130,2013-05-12 23:35:00
6:55 PM,73.4,50.0,44,30.03,10.0,East,13.8,-,N/A,,Clear,100,2013-05-12 23:55:00
7:15 PM,71.6,51.8,50,30.03,10.0,ESE,12.7,-,N/A,,Partly Cloudy,110,2013-05-13 00:15:00
7:35 PM,71.6,50.0,46,30.03,9.0,ESE,15.0,-,N/A,,Clear,110,2013-05-13 00:35:00
7:55 PM,69.8,50.0,49,30.03,10.0,ESE,13.8,-,N/A,,Clear,110,2013-05-13 00:55:00
8:15 PM,66.2,48.2,52,30.04,10.0,ESE,11.5,-,N/A,,Clear,110,2013-05-13 01:15:00
8:35 PM,64.4,48.2,56,30.04,10.0,ESE,12.7,-,N/A,,Clear,110,2013-05-13 01:35:00
8:55 PM,62.6,48.2,59,30.05,10.0,ESE,10.4,-,N/A,,Clear,110,2013-05-13 01:55:00
9:15 PM,60.8,48.2,63,30.05,10.0,ENE,9.2,-,N/A,,Clear,70,2013-05-13 02:15:00
9:35 PM,59.0,48.2,67,30.05,10.0,East,10.4,-,N/A,,Clear,90,2013-05-13 02:35:00
9:55 PM,57.2,48.2,72,30.06,10.0,East,9.2,-,N/A,,Clear,90,2013-05-13 02:55:00
10:15 PM,57.2,48.2,72,30.07,10.0,East,9.2,-,N/A,,Clear,100,2013-05-13 03:15:00
10:35 PM,55.4,48.2,77,30.07,10.0,East,9.2,-,N/A,,Clear,90,2013-05-13 03:35:00
10:55 PM,55.4,46.4,72,30.07,10.0,East,6.9,-,N/A,,Clear,90,2013-05-13 03:55:00
11:15 PM,53.6,46.4,77,30.07,10.0,East,8.1,-,N/A,,Clear,100,2013-05-13 04:15:00
11:35 PM,51.8,46.4,82,30.07,10.0,East,6.9,-,N/A,,Clear,100,2013-05-13 04:35:00
11:55 PM,51.8,46.4,82,30.07,10.0,ESE,5.8,-,N/A,,Clear,110,2013-05-13 04:55:00